Location: Cella
(44.7333°N, 10.5667°E)
Time: 23:08:13
(UTC+00:00)

SeaSat 1 - Pass Details

Date: 03 March 2021
Orbit: 744 x 747 km, 108.0° (Epoch: 18 April)

Event Time Altitude Azimuth Distance (km) Brightness Sun altitude
Rises 19:33:46 0° 18° (NNE) 3,200 5.7 -26.3°
Reaches altitude 10° 19:36:16 10° 8° (N) 2,273 5.0 -26.8°
Maximum altitude 19:40:28 29° 310° (NW) 1,356 4.3 -27.5°
Drops below altitude 10° 19:44:40 10° 251° (WSW) 2,263 5.5 -28.2°
Sets 19:47:10 0° 241° (WSW) 3,184 6.2 -28.6°
